Billings, MT (59101)

5:07 PM MDT on May 27, 2017 (GMT -0600)
Jupiter Sulphur | | Change Station

Elev 3114 ft 45.78 °N, 108.49 °W | Updated 1 minute ago

Mostly Cloudy
Mostly Cloudy
73.0 °F
Feels Like 76 °F
N
2.0
Wind Variable Wind from NNW
Gusts 9.0 mph

Today
High -- | Low -- °F
--% Chance of Precip.
Yesterday
High -- | Low -- °F
Precip. -- in
Pressure 30.05 in
Visibility 10.0 miles
Clouds Few 6000 ft
Scattered Clouds 8500 ft
Mostly Cloudy 10000 ft
Heat Index 76 °F
Dew Point 37 °F
Humidity 27%
Rainfall 0.00 in
Snow Depth Not available.
5:30 AM 8:52 PM
Waxing Crescent, 7% visible
METAR KBIL 272053Z 28007KT 10SM FEW060 SCT085CB BKN100 20/03 A3009 RMK AO2 PK WND 30027/2040 RAB40E50 SLP175 VIRGA VCSH ALQDS CB ALQDS MOV SE P0000 60000 T02000033 53005
Pressure 30.05 in
Visibility 10.0 miles
Clouds Few 6000 ft
Scattered Clouds 8500 ft
Mostly Cloudy 10000 ft
Heat Index 76 °F
Dew Point 37 °F
Humidity 27%
Rainfall 0.00 in
Snow Depth Not available.
5:30 AM 8:52 PM
Waxing Crescent, 7% visible
METAR KBIL 272053Z 28007KT 10SM FEW060 SCT085CB BKN100 20/03 A3009 RMK AO2 PK WND 30027/2040 RAB40E50 SLP175 VIRGA VCSH ALQDS CB ALQDS MOV SE P0000 60000 T02000033 53005

Get Severe Weather Alerts

Thanks for signing up!

Be on the lookout for a verification email in your inbox.

You'll start receiving the daily forecast at 6 AM.

×

10-Day Weather Forecast

Almanac

Astronomy

May. 27, 2017 Rise Set
Actual Time
Civil Twilight
Nautical Twilight
Astronomical Twilight
Moon
Length of Visible Light
Length of Day
Tomorrow will be .
, % of the Moon is Illuminated

Today's Extremes

State Highs State Lows

Community

WunderPhotos

Category 6

Welcome to Category 6. This is the collective home for Weather Underground's featured writeups by Dr. Jeff Masters (right), Bob Henson (left), Chris Burt, and other regular contributors.

Nearby

Air Quality

  Air Quality AQ Index Pollutant
Not available.

Snow Depth

Station Depth Elevation

Earthquake Activity

City Distance Mag. Time & Date
Minimum magnitude displayed is 2.5.

Coastal Water Temperatures

Place Temperature

Stations

Nearby Weather Stations

Station Location Temp. Windchill Dew Point Humidity Wind Precip. Elev Updated Type
                   

Watches & Warnings

There are currently no watches in effect.